Location: Unspecified
(41.5000°N, 0.0000°E)
Time: 04:35:49
(UTC+00:00)

Vanguard 1 - Pass Details

Date: 25 June 2019
Orbit: 653 x 3830 km, 34.3° (Epoch: 12 October)

Event Time Altitude Azimuth Distance (km) Brightness Sun altitude
Rises 21:36:52 0° 183° (S) 7,781 14.2 -16.9°
Enters shadow 21:37:11 - 182° (S) 7,747 14.2 -16.9°
Exits shadow 22:01:05 15° 124° (ESE) 6,159 13.6 -19.3°
Drops below altitude 10° 22:07:38 10° 105° (ESE) 6,276 13.8 -19.9°
Sets 22:14:43 0° 87° (E) 6,770 14.1 -20.5°
